Location: Newark
(45.8667°N, 9.7333°E)
Time: 00:25:42
(UTC+00:00)

Transit 2A Rocket - Visible Passes

Search period start: 28 January 2020 00:00
Search period end: 07 February 2020 00:00
Orbit: 593 x 910 km, 66.7° (Epoch: 27 January)

Date Brightness Start Highest point End Pass type
(mag) Time Alt. Az. Time Alt. Az. Time Alt. Az.
28 Jan 6.4 03:50:42 27° NE 03:50:42 27° NE 03:52:49 10° NE visible
28 Jan 5.8 05:30:38 20° WNW 05:31:26 21° NW 05:34:47 10° N visible
29 Jan 7.6 03:09:42 11° NE 03:09:42 11° NE 03:09:59 10° NE visible
29 Jan 5.6 04:49:37 29° NNW 04:49:37 29° NNW 04:52:36 10° NNE visible
30 Jan 6.4 04:08:30 23° NNE 04:08:30 23° NNE 04:10:15 10° NNE visible
30 Jan 6.6 05:48:25 10° NW 05:49:34 11° NNW 05:50:56 10° NNW visible
31 Jan 7.3 03:27:17 13° NE 03:27:17 13° NE 03:27:46 10° NE visible
31 Jan 6.4 05:07:12 16° NNW 05:07:12 16° NNW 05:09:21 10° N visible
01 Feb 6.6 04:25:55 16° N 04:25:55 16° N 04:27:17 10° NNE visible
02 Feb 7.2 03:44:35 12° NNE 03:44:35 12° NNE 03:45:02 10° NNE visible
03 Feb 6.9 04:43:08 11° NNW 04:43:08 11° NNW 04:43:46 10° N visible
04 Feb 7.2 04:01:44 11° N 04:01:44 11° N 04:01:55 10° N visible
